Location: Petruro
(41.0333°N, 14.7833°E)
Time: 08:34:18
(UTC+00:00)

Cosmos 1825 - Pass Details

Date: 20 June 2021
Orbit: 501 x 506 km, 82.5° (Epoch: 03 August)

Event Time Altitude Azimuth Distance (km) Brightness Sun altitude
Exits shadow 00:13:10 54° 319° (NW) 620 2.6 -23.5°
Drops below altitude 10° 00:16:24 10° 1° (N) 1,726 5.8 -23.3°
Sets 00:18:33 0° 5° (N) 2,615 7.1 -23.2°
